[[{"header":{"parameterUnit":"m.s-1","parameterCategory":1,"la1":30.2991,"la2":30.254,"lo1":-89.0895,"lo2":-89.0444,"dy":0.0017,"dx":0.0017,"nx":28,"ny":28,"refTime":"2023-10-08T03:00:00:Z","depth":0,"parameterNumber":2,"parameterNumberName":"U-component_of_WINDS"},"data":[0,0,0,0,0,0,0,0,0,0,0,0,0,0,0,0,0,0,0,0,0,0,0,0,0,0,0,0,0,0,0,0,0,0,0,0,0,0,0,0,0,0,0,0,0,0,0,0,0,0,0,0,0,0,0,0,0,0,1.0534,1.0535,0,1.0574,1.0574,1.0575,1.0587,1.0587,1.0587,1.0587,1.063,1.0631,1.0632,0,0,0,0,0,0,0,0,0,0,0,0,0,1.0472,1.0473,1.0534,1.0535,1.0535,1.0574,1.0574,1.0575,1.0587,1.0587,1.0587,1.0587,1.0629,1.0631,1.0633,0,0,0,0,0,0,0,0,0,0,0,0,0,1.0504,1.0473,1.0534,1.0546,1.0547,1.0574,1.0575,1.0575,1.0587,1.0587,1.0587,1.0586,1.0629,1.0631,1.0633,1.0651,0,0,1.0639,1.064,0,0,0,0,0,0,0,0,1.0502,1.0506,1.0544,1.0545,1.0547,1.0575,1.0568,1.0601,1.0587,1.0572,1.0587,1.0586,1.0612,1.0615,1.0624,1.0653,1.0655,1.0639,1.064,1.0641,1.0642,0,0,0,0,0,0,0,1.05,1.0505,1.055,1.0544,1.0546,1.055,1.0554,1.0575,1.0593,1.0574,1.0575,1.0579,1.0613,1.0622,1.0625,1.0656,1.0639,1.0641,1.0642,1.0643,1.0703,1.0704,0,0,0,0,0,0,1.0495,1.0503,1.0549,1.0551,1.0523,1.0552,1.0556,1.0567,1.0593,1.0597,1.0579,1.0579,1.0618,1.0622,1.0626,1.065,1.0641,1.0643,1.0644,1.0703,1.0703,1.0704,0,0,0,0,0,0,1.0494,1.0499,1.0547,1.0527,1.0534,1.0553,1.0564,1.0567,1.0576,1.0597,1.0601,1.0584,1.0618,1.0623,1.0645,1.0651,1.0644,1.0646,1.0702,1.0703,1.0703,1.0697,0,0,0,0,0,0,1.0492,1.0499,1.0505,1.0527,1.0535,1.0564,1.0565,1.0568,1.0579,1.058,1.0603,1.0607,1.0618,1.0642,1.0647,1.0654,1.0647,1.0702,1.0703,1.0703,1.0696,1.0697,1.0697,0,0,0,0,0,1.049,1.0502,1.0505,1.0511,1.0543,1.0564,1.0569,1.0581,1.058,1.0587,1.0601,1.0606,1.065,1.0644,1.065,1.0658,1.0701,1.0702,1.0703,1.0696,1.0697,1.0697,0,0,0,0,0,0,1.048,1.0505,1.0509,1.0528,1.0544,1.0566,1.0575,1.0581,1.0598,1.0598,1.0614,1.0619,1.0639,1.0651,1.0643,1.0677,1.0676,1.0678,1.0669,1.067,1.067,1.0667,1.0649,0,0,0,0,0,1.0481,1.0495,1.0516,1.0531,1.0539,1.0556,1.0566,1.0574,1.0591,1.0598,1.0613,1.0631,1.0648,1.066,1.0677,1.0698,1.0704,1.0707,1.0707,1.0708,1.0709,1.0722,1.0724,1.0707,1.0707,1.0707,0,0,1.0481,1.0496,1.0505,1.053,1.0543,1.0559,1.0561,1.0578,1.059,1.0601,1.0622,1.0634,1.0654,1.0676,1.0686,1.0686,1.0715,1.0709,1.0709,1.071,1.0723,1.0725,1.0726,1.0707,1.0707,1.0707,0,0,1.049,1.0503,1.0517,1.053,1.055,1.0561,1.0565,1.0586,1.0594,1.0616,1.0624,1.064,1.067,1.0684,1.0695,1.0711,1.0717,1.0716,1.0719,1.0731,1.0732,1.0733,1.0739,1.0741,1.0718,1.0718,1.0718,0,1.0488,1.0511,1.0524,1.054,1.0551,1.0561,1.0576,1.0589,1.0614,1.0622,1.0621,1.066,1.0674,1.0699,1.0703,1.0712,1.0717,1.0713,1.0731,1.0732,1.0734,1.0739,1.0741,1.0717,1.0717,1.0717,1.0717,0,1.0508,1.0524,1.0534,1.0556,1.0569,1.0584,1.06,1.0612,1.0619,1.0631,1.0653,1.0671,1.0692,1.0699,1.0707,1.0726,1.0725,1.0728,1.0727,1.0735,1.074,1.0743,1.0717,1.0717,1.0717,1.0717,0,0,1.0511,1.0542,1.0545,1.0556,1.0579,1.0592,1.0608,1.0629,1.0638,1.0656,1.067,1.0696,1.0698,1.0711,1.0721,1.0732,1.0743,1.0733,1.0734,1.0734,1.0766,1.0763,1.0766,1.0748,1.0748,1.0748,1.0764,0,1.0523,1.0552,1.0564,1.0588,1.0603,1.0614,1.0628,1.0645,1.0657,1.0672,1.0686,1.0703,1.0706,1.0713,1.0725,1.0739,1.075,1.0738,1.0762,1.0763,1.0756,1.0768,1.0766,1.078,1.0766,1.0767,1.0767,0,1.054,1.0557,1.0582,1.0603,1.061,1.0623,1.0643,1.0658,1.0677,1.0685,1.0699,1.0709,1.0728,1.0726,1.0753,1.0745,1.0755,1.0764,1.0765,1.0768,1.0765,1.0771,1.0784,1.0786,1.077,1.077,1.077,0,1.054,1.0569,1.0587,1.0596,1.0622,1.0631,1.0642,1.0661,1.0673,1.0691,1.0699,1.0719,1.0731,1.0747,1.0762,1.0759,1.0787,1.0786,1.0795,1.0794,1.08,1.0799,1.0815,1.0807,1.0807,1.0807,1.0807,0,1.0551,1.0566,1.0588,1.0599,1.0616,1.0631,1.0648,1.0661,1.0678,1.0692,1.0704,1.0717,1.0736,1.0753,1.0765,1.0786,1.0791,1.0798,1.0801,1.0797,1.0796,1.0804,1.0803,1.0808,1.0807,1.0807,1.0807,0,1.0553,1.0568,1.0589,1.0612,1.0619,1.063,1.0651,1.0663,1.0675,1.0694,1.0699,1.072,1.074,1.0756,1.0783,1.0791,1.0813,1.0816,1.0806,1.0807,1.0815,1.0814,1.0836,1.0839,1.0829,1.0829,1.0829,0,1.0559,1.0571,1.0595,1.0606,1.0617,1.0633,1.0645,1.0661,1.0673,1.0697,1.0706,1.0727,1.0745,1.0777,1.0794,1.0815,1.0819,1.0826,1.0822,1.0818,1.0819,1.0818,1.082,1.0826,1.0826,1.0826,1.0826,0,1.0569,1.0576,1.0592,1.0611,1.0625,1.0641,1.0658,1.0666,1.0685,1.0699,1.0719,1.0733,1.076,1.0781,1.0804,1.0817,1.0825,1.0827,1.083,1.0825,1.0819,1.0822,1.0807,1.0826,1.0826,1.0826,1.0826,1.0826,1.0573,1.0584,1.0603,1.0621,1.0635,1.0651,1.0663,1.0677,1.0694,1.0717,1.0726,1.0747,1.0767,1.0799,1.0812,1.0829,1.083,1.0835,1.0836,1.0836,1.0836,1.0816,1.0834,1.0834,1.0834,1.0834,1.0834,0,1.0583,1.0596,1.0612,1.0635,1.0649,1.0655,1.0674,1.0686,1.0704,1.0722,1.0739,1.0763,1.0784,1.0803,1.0825,1.0836,1.084,1.0841,1.084,1.0843,1.0834,1.0829,1.0837,1.0837,1.0837,1.0837,1.0837,1.0837,1.059,1.0609,1.0618,1.0645,1.0658,1.0678,1.0688,1.0703,1.0717,1.0743,1.076,1.0772,1.0791,1.0815,1.0834,1.084,1.0847,1.0847,1.0853,1.0844,1.0844,1.0843,1.0839,1.0849,1.0849,1.0861,1.0861,1.0861]},{"header":{"parameterUnit":"m.s-1","parameterCategory":1,"la1":30.2991,"la2":30.254,"lo1":-89.0895,"lo2":-89.0444,"dy":0.0017,"dx":0.0017,"nx":28,"ny":28,"refTime":"2023-10-08T03:00:00:Z","depth":0,"parameterNumber":3,"parameterNumberName":"V-component_of_WINDS"},"data":[0,0,0,0,0,0,0,0,0,0,0,0,0,0,0,0,0,0,0,0,0,0,0,0,0,0,0,0,0,0,0,0,0,0,0,0,0,0,0,0,0,0,0,0,0,0,0,0,0,0,0,0,0,0,0,0,0,0,-1.0904,-1.0905,0,-1.0985,-1.0986,-1.0987,-1.1067,-1.1068,-1.1069,-1.107,-1.1152,-1.1153,-1.1154,0,0,0,0,0,0,0,0,0,0,0,0,0,-1.0817,-1.0818,-1.0904,-1.0905,-1.0906,-1.0985,-1.0986,-1.0988,-1.1067,-1.1068,-1.1069,-1.107,-1.1152,-1.1153,-1.1155,0,0,0,0,0,0,0,0,0,0,0,0,0,-1.0872,-1.0819,-1.0904,-1.0955,-1.096,-1.0985,-1.0987,-1.0988,-1.1066,-1.1068,-1.107,-1.1071,-1.1151,-1.1153,-1.1155,-1.1135,0,0,-1.116,-1.1161,0,0,0,0,0,0,0,0,-1.0869,-1.0875,-1.0946,-1.0951,-1.0958,-1.1018,-1.0986,-1.1037,-1.1066,-1.1026,-1.107,-1.1072,-1.1106,-1.1112,-1.1123,-1.1139,-1.1142,-1.116,-1.1162,-1.1162,-1.1163,0,0,0,0,0,0,0,-1.0865,-1.0872,-1.0936,-1.0947,-1.0954,-1.0974,-1.0984,-1.0996,-1.1056,-1.103,-1.1036,-1.1044,-1.1109,-1.1121,-1.1126,-1.1144,-1.116,-1.1162,-1.1163,-1.1164,-1.1151,-1.115,0,0,0,0,0,0,-1.0853,-1.0869,-1.0933,-1.0939,-1.0916,-1.0974,-1.0985,-1.0997,-1.1056,-1.1067,-1.1043,-1.1048,-1.1118,-1.1124,-1.1129,-1.1113,-1.1162,-1.1164,-1.1165,-1.1152,-1.1151,-1.1149,0,0,0,0,0,0,-1.0851,-1.0858,-1.093,-1.0905,-1.0916,-1.0974,-1.0987,-1.0997,-1.101,-1.1066,-1.1077,-1.1044,-1.1119,-1.1127,-1.1134,-1.1117,-1.1165,-1.1167,-1.1154,-1.1152,-1.115,-1.1078,0,0,0,0,0,0,-1.0848,-1.0857,-1.085,-1.0904,-1.0917,-1.0933,-1.0986,-1.0998,-1.1013,-1.102,-1.1071,-1.108,-1.1121,-1.1131,-1.1136,-1.112,-1.1168,-1.1156,-1.1153,-1.1151,-1.1083,-1.1074,-1.1067,0,0,0,0,0,-1.0845,-1.0825,-1.0849,-1.0856,-1.0909,-1.0932,-1.0939,-1.0986,-1.1011,-1.1005,-1.1042,-1.1079,-1.1118,-1.1131,-1.1137,-1.1122,-1.1157,-1.1154,-1.1151,-1.1086,-1.1076,-1.1067,0,0,0,0,0,0,-1.0766,-1.0833,-1.086,-1.0858,-1.0889,-1.0945,-1.0939,-1.0973,-1.0997,-1.1003,-1.106,-1.1071,-1.1072,-1.1098,-1.1111,-1.1108,-1.1143,-1.1141,-1.1092,-1.1082,-1.1074,-1.1069,-1.117,0,0,0,0,0,-1.0748,-1.0761,-1.0819,-1.0812,-1.0826,-1.0879,-1.0891,-1.0925,-1.0959,-1.0972,-1.101,-1.1041,-1.1061,-1.1073,-1.1094,-1.1086,-1.11,-1.1079,-1.1071,-1.1064,-1.1062,-1.1064,-1.1056,-1.1138,-1.1139,-1.1139,0,0,-1.0712,-1.075,-1.0755,-1.0797,-1.0825,-1.0838,-1.089,-1.09,-1.0911,-1.0974,-1.0984,-1.1013,-1.1052,-1.1053,-1.1055,-1.1074,-1.1043,-1.106,-1.1055,-1.1056,-1.106,-1.1052,-1.1045,-1.1136,-1.1137,-1.1137,0,0,-1.0653,-1.0682,-1.068,-1.0708,-1.075,-1.0787,-1.0786,-1.0838,-1.086,-1.0871,-1.092,-1.0933,-1.0965,-1.0992,-1.101,-1.0964,-1.1,-1.0969,-1.0928,-1.0929,-1.0923,-1.0917,-1.0904,-1.0898,-1.0966,-1.0966,-1.0966,0,-1.0602,-1.0624,-1.0675,-1.0684,-1.0702,-1.0761,-1.0761,-1.0784,-1.0831,-1.0842,-1.0863,-1.0907,-1.0937,-1.0947,-1.0936,-1.0947,-1.095,-1.0964,-1.0919,-1.0914,-1.091,-1.0898,-1.0892,-1.0962,-1.0963,-1.0963,-1.0964,0,-1.0561,-1.0575,-1.0569,-1.0614,-1.0631,-1.0635,-1.0688,-1.0699,-1.0732,-1.0766,-1.0779,-1.0818,-1.0849,-1.0854,-1.0885,-1.0869,-1.088,-1.0909,-1.0945,-1.0898,-1.0887,-1.0883,-1.0957,-1.0958,-1.0959,-1.096,0,0,-1.0454,-1.0529,-1.0526,-1.0549,-1.0601,-1.0613,-1.0621,-1.0653,-1.0663,-1.0693,-1.0702,-1.0729,-1.0758,-1.0778,-1.0813,-1.0813,-1.0779,-1.0843,-1.0845,-1.0832,-1.0767,-1.0746,-1.0739,-1.0802,-1.0802,-1.0801,-1.0764,0,-1.0405,-1.0423,-1.0471,-1.0474,-1.049,-1.0547,-1.0554,-1.0587,-1.0619,-1.0638,-1.0674,-1.0693,-1.0728,-1.0741,-1.0744,-1.0782,-1.0766,-1.0785,-1.0813,-1.0813,-1.0804,-1.0734,-1.0711,-1.0675,-1.076,-1.076,-1.0759,0,-1.0351,-1.038,-1.0385,-1.044,-1.0448,-1.0453,-1.0488,-1.0504,-1.0544,-1.0568,-1.0592,-1.0631,-1.0644,-1.0677,-1.0696,-1.0708,-1.0722,-1.0743,-1.0743,-1.0749,-1.0785,-1.074,-1.0664,-1.0659,-1.0753,-1.0753,-1.0754,0,-1.0276,-1.0316,-1.0326,-1.0343,-1.0405,-1.0408,-1.0435,-1.0476,-1.0493,-1.0523,-1.0535,-1.0566,-1.0583,-1.0606,-1.0654,-1.0673,-1.0669,-1.0705,-1.0691,-1.069,-1.0689,-1.0689,-1.0616,-1.0694,-1.0694,-1.0694,-1.0694,0,-1.0219,-1.022,-1.0293,-1.0299,-1.0303,-1.0358,-1.0361,-1.0393,-1.0429,-1.0443,-1.0493,-1.0505,-1.0567,-1.0586,-1.0623,-1.0636,-1.0642,-1.0663,-1.0673,-1.066,-1.0658,-1.0671,-1.0676,-1.0693,-1.0693,-1.0693,-1.0694,0,-1.0136,-1.0184,-1.0199,-1.0258,-1.0273,-1.0274,-1.0325,-1.0333,-1.0369,-1.0387,-1.0394,-1.0451,-1.0477,-1.0526,-1.0565,-1.0591,-1.0596,-1.0612,-1.0582,-1.0589,-1.0573,-1.0575,-1.0509,-1.0504,-1.0582,-1.0581,-1.0581,0,-1.0097,-1.01,-1.016,-1.0173,-1.0198,-1.0218,-1.0237,-1.0291,-1.0309,-1.0356,-1.0359,-1.0389,-1.0416,-1.0455,-1.05,-1.0531,-1.055,-1.0525,-1.0555,-1.0543,-1.0553,-1.0554,-1.0556,-1.0519,-1.0518,-1.0517,-1.0516,0,-1.0024,-1.0048,-1.0073,-1.0107,-1.0128,-1.0157,-1.0189,-1.0197,-1.0259,-1.0276,-1.0304,-1.0325,-1.0366,-1.0396,-1.0434,-1.0462,-1.05,-1.0506,-1.0505,-1.0492,-1.0476,-1.0488,-1.0567,-1.0508,-1.0508,-1.0509,-1.0509,-1.051,-0.9964,-0.9971,-1.0015,-1.0041,-1.0071,-1.01,-1.0112,-1.0151,-1.0175,-1.0214,-1.0244,-1.027,-1.0313,-1.0368,-1.0394,-1.0416,-1.0433,-1.0431,-1.0431,-1.043,-1.0426,-1.0471,-1.0422,-1.0423,-1.0423,-1.0423,-1.0423,0,-0.9896,-0.9928,-0.9951,-0.9995,-1.0017,-1.0051,-1.0088,-1.0104,-1.0127,-1.0163,-1.0189,-1.0223,-1.0253,-1.0301,-1.0335,-1.0344,-1.0362,-1.0351,-1.0352,-1.0359,-1.0406,-1.0405,-1.0336,-1.0336,-1.0336,-1.0336,-1.0336,-1.0336,-0.9863,-0.9877,-0.9907,-0.9937,-0.9969,-0.9996,-1.0015,-1.0042,-1.0072,-1.0107,-1.0133,-1.0164,-1.0207,-1.0245,-1.0275,-1.0288,-1.03,-1.0283,-1.0303,-1.0347,-1.0355,-1.0363,-1.0362,-1.0285,-1.0285,-1.0254,-1.0253,-1.0253]}]]